TUI18H EDDF-LGIR

Flight info

Callsign TUI18H
Flight time 3h 0m
Altitude 37000
Route CINDY8S/18 CINDY Z74 LAMPU DCT NOMBO Y161 MAH DCT LATLO DCT OBEDI DCT TEBLI DCT TIVNU DCT RETRA DCT PINDO DCT PIKOS DCT KEA UL607 GIVIS T514 XAVIS
Aircraft B738/M-SDE2E3FGHIRWXY/LB1

Departure

Time 2026-04-13 14:04
Airport Frankfurt Main Airport (EDDF)

Arrival

Time 2026-04-13 17:04
Airport Heraklion International Nikos Kazantzakis Airport (LGIR)
Time Latitude Longitude Altitude Speed Heading
2026-04-13 13:00 50.04908 8.58800 355 ft 0 kts 160°
2026-04-13 13:46 50.04925 8.58790 356 ft 4 kts 160°
2026-04-13 13:46 50.04949 8.58778 354 ft 4 kts 184°
2026-04-13 13:47 50.04961 8.58790 352 ft 1 kts 250°
2026-04-13 13:47 50.04968 8.58821 355 ft 1 kts 250°
2026-04-13 13:54 50.04967 8.58817 344 ft 2 kts 250°
2026-04-13 13:54 50.04954 8.58763 349 ft 8 kts 249°
2026-04-13 13:54 50.04911 8.58696 347 ft 9 kts 194°
2026-04-13 13:55 50.04847 8.58717 347 ft 11 kts 158°
2026-04-13 13:55 50.04751 8.58761 348 ft 18 kts 183°
2026-04-13 13:55 50.04680 8.58583 349 ft 23 kts 249°
2026-04-13 13:55 50.04618 8.58321 346 ft 28 kts 250°
2026-04-13 13:56 50.04550 8.58038 348 ft 29 kts 249°
2026-04-13 13:56 50.04479 8.57744 350 ft 29 kts 250°
2026-04-13 13:56 50.04409 8.57446 351 ft 29 kts 250°
2026-04-13 13:56 50.04343 8.57165 347 ft 27 kts 250°
2026-04-13 13:57 50.04279 8.56902 348 ft 25 kts 249°
2026-04-13 13:57 50.04214 8.56635 346 ft 29 kts 249°
2026-04-13 13:57 50.04138 8.56316 348 ft 34 kts 250°
2026-04-13 13:57 50.04052 8.55952 350 ft 38 kts 249°
2026-04-13 13:58 50.03960 8.55568 350 ft 34 kts 249°
2026-04-13 13:58 50.03906 8.55341 351 ft 19 kts 250°
2026-04-13 13:58 50.03859 8.55147 350 ft 19 kts 249°
2026-04-13 13:58 50.03813 8.54960 346 ft 18 kts 250°
2026-04-13 13:59 50.03771 8.54780 348 ft 18 kts 250°
2026-04-13 13:59 50.03729 8.54604 349 ft 17 kts 250°
2026-04-13 13:59 50.03688 8.54436 348 ft 16 kts 249°
2026-04-13 13:59 50.03640 8.54239 347 ft 27 kts 250°
2026-04-13 14:00 50.03568 8.53934 347 ft 30 kts 250°
2026-04-13 14:00 50.03510 8.53692 350 ft 18 kts 249°
2026-04-13 14:00 50.03466 8.53510 348 ft 18 kts 250°
2026-04-13 14:00 50.03425 8.53337 348 ft 18 kts 250°
2026-04-13 14:01 50.03375 8.53131 352 ft 22 kts 249°
2026-04-13 14:01 50.03326 8.52931 351 ft 12 kts 250°
2026-04-13 14:01 50.03309 8.52854 347 ft 4 kts 251°
2026-04-13 14:01 50.03308 8.52850 346 ft 0 kts 251°
2026-04-13 14:02 50.03301 8.52818 352 ft 8 kts 251°
2026-04-13 14:02 50.03275 8.52701 350 ft 12 kts 251°
2026-04-13 14:02 50.03255 8.52617 349 ft 7 kts 245°
2026-04-13 14:02 50.03218 8.52597 345 ft 6 kts 178°
2026-04-13 14:03 50.03156 8.52597 351 ft 24 kts 180°
2026-04-13 14:03 50.02724 8.52600 345 ft 99 kts 179°
2026-04-13 14:03 50.01808 8.52609 351 ft 162 kts 179°
2026-04-13 14:03 50.00594 8.52630 844 ft 176 kts 179°
2026-04-13 14:04 49.99393 8.52662 1846 ft 172 kts 181°
2026-04-13 14:04 49.98164 8.52636 2402 ft 189 kts 181°
2026-04-13 14:04 49.96772 8.52806 2737 ft 213 kts 162°
2026-04-13 14:04 49.95597 8.54268 3015 ft 226 kts 118°
2026-04-13 14:05 49.94931 8.56515 3531 ft 232 kts 114°
2026-04-13 14:05 49.94226 8.58784 4180 ft 235 kts 114°
2026-04-13 14:05 49.93920 8.61318 4695 ft 251 kts 92°
2026-04-13 14:05 49.93864 8.64105 5133 ft 267 kts 93°
2026-04-13 14:06 49.93777 8.67018 5883 ft 272 kts 97°
2026-04-13 14:06 49.93177 8.69767 6602 ft 272 kts 127°
2026-04-13 14:06 49.91830 8.71779 7416 ft 269 kts 145°
2026-04-13 14:06 49.90303 8.73458 8212 ft 269 kts 146°
2026-04-13 14:07 49.88778 8.75162 8983 ft 272 kts 139°
2026-04-13 14:07 49.87657 8.77520 9749 ft 276 kts 122°
2026-04-13 14:07 49.86719 8.80146 10351 ft 285 kts 121°
2026-04-13 14:07 49.85722 8.82947 10512 ft 308 kts 121°
2026-04-13 14:08 49.84643 8.85946 10677 ft 329 kts 121°
2026-04-13 14:08 49.83490 8.89133 10829 ft 348 kts 121°
2026-04-13 14:08 49.82278 8.92480 11084 ft 363 kts 121°
2026-04-13 14:08 49.81452 8.94756 11402 ft 367 kts 121°
2026-04-13 14:09 49.79789 8.99340 12222 ft 371 kts 121°
2026-04-13 14:09 49.78510 9.02853 12868 ft 375 kts 121°
2026-04-13 14:09 49.77219 9.06391 13489 ft 379 kts 121°
2026-04-13 14:09 49.76372 9.08769 13894 ft 382 kts 118°
2026-04-13 14:10 49.75534 9.12712 14478 ft 389 kts 104°
2026-04-13 14:10 49.74942 9.16810 15099 ft 391 kts 108°
2026-04-13 14:10 49.73767 9.20578 15642 ft 390 kts 129°
2026-04-13 14:10 49.71999 9.23761 16301 ft 390 kts 134°
2026-04-13 14:11 49.70189 9.26842 16899 ft 394 kts 134°
2026-04-13 14:11 49.68334 9.30004 17464 ft 398 kts 134°
2026-04-13 14:11 49.66483 9.33209 18043 ft 401 kts 134°
2026-04-13 14:11 49.64624 9.36453 18563 ft 404 kts 134°
2026-04-13 14:12 49.62764 9.39646 19071 ft 405 kts 137°
2026-04-13 14:12 49.60652 9.42494 19569 ft 404 kts 146°
2026-04-13 14:12 49.58270 9.44796 20075 ft 404 kts 152°
2026-04-13 14:12 49.55826 9.46986 20554 ft 407 kts 152°
2026-04-13 14:13 49.53367 9.49186 21010 ft 410 kts 152°
2026-04-13 14:13 49.50903 9.51407 21481 ft 412 kts 152°
2026-04-13 14:13 49.48419 9.53660 21933 ft 415 kts 152°
2026-04-13 14:14 49.43420 9.58221 22812 ft 420 kts 152°
2026-04-13 14:14 49.40899 9.60522 23236 ft 422 kts 152°
2026-04-13 14:14 49.38366 9.62829 23623 ft 425 kts 151°
2026-04-13 14:14 49.35848 9.65122 23975 ft 426 kts 151°
2026-04-13 14:15 49.33400 9.67716 24322 ft 431 kts 143°
2026-04-13 14:15 49.31196 9.70885 24683 ft 435 kts 137°
2026-04-13 14:15 49.29077 9.74183 25040 ft 436 kts 137°
2026-04-13 14:15 49.26939 9.77516 25353 ft 438 kts 137°
2026-04-13 14:16 49.24789 9.80848 25670 ft 440 kts 137°
2026-04-13 14:16 49.22624 9.84177 25980 ft 442 kts 137°
2026-04-13 14:16 49.20441 9.87512 26283 ft 444 kts 137°
2026-04-13 14:16 49.18249 9.90848 26587 ft 446 kts 137°
2026-04-13 14:17 49.16075 9.94150 26867 ft 447 kts 137°
2026-04-13 14:17 49.13853 9.97520 27144 ft 449 kts 137°
2026-04-13 14:17 49.11622 10.00899 27420 ft 451 kts 137°
2026-04-13 14:17 49.09394 10.04273 27718 ft 452 kts 137°
2026-04-13 14:18 49.07159 10.07652 28127 ft 451 kts 137°
2026-04-13 14:18 49.04925 10.10978 28591 ft 448 kts 139°
2026-04-13 14:18 49.02642 10.14206 29018 ft 446 kts 140°
2026-04-13 14:18 49.00351 10.17384 29410 ft 445 kts 140°
2026-04-13 14:19 48.98092 10.20530 29790 ft 445 kts 139°
2026-04-13 14:19 48.95821 10.23714 30167 ft 443 kts 139°
2026-04-13 14:19 48.93563 10.26897 30529 ft 442 kts 139°
2026-04-13 14:19 48.91313 10.30068 30886 ft 441 kts 139°
2026-04-13 14:20 48.89061 10.33243 31220 ft 440 kts 139°
2026-04-13 14:20 48.86818 10.36399 31551 ft 439 kts 139°
2026-04-13 14:20 48.84575 10.39550 31894 ft 438 kts 139°
2026-04-13 14:20 48.82350 10.42719 32244 ft 437 kts 137°
2026-04-13 14:21 48.80238 10.46033 32555 ft 437 kts 135°
2026-04-13 14:21 48.78177 10.49438 32861 ft 437 kts 134°
2026-04-13 14:21 48.76145 10.52793 33172 ft 436 kts 134°
2026-04-13 14:21 48.74080 10.56152 33501 ft 435 kts 135°
2026-04-13 14:22 48.71994 10.59485 33815 ft 434 kts 135°
2026-04-13 14:22 48.69893 10.62768 34050 ft 434 kts 136°
2026-04-13 14:22 48.67787 10.66043 34266 ft 435 kts 136°
2026-04-13 14:22 48.65679 10.69328 34507 ft 435 kts 136°
2026-04-13 14:23 48.63591 10.72631 34736 ft 435 kts 135°
2026-04-13 14:23 48.61509 10.75965 34883 ft 437 kts 135°
2026-04-13 14:23 48.57314 10.82669 34963 ft 438 kts 135°
2026-04-13 14:24 48.53149 10.89346 34886 ft 435 kts 135°
2026-04-13 14:24 48.48993 10.95987 34890 ft 435 kts 135°
2026-04-13 14:25 48.44807 11.02537 34890 ft 437 kts 136°
2026-04-13 14:25 48.40573 11.09102 34884 ft 437 kts 136°
2026-04-13 14:26 48.36331 11.15681 34876 ft 438 kts 136°
2026-04-13 14:26 48.32112 11.22220 34855 ft 437 kts 136°
2026-04-13 14:27 48.27879 11.28766 34851 ft 436 kts 136°
2026-04-13 14:27 48.24560 11.35488 34855 ft 440 kts 123°
2026-04-13 14:28 48.21566 11.43511 34848 ft 440 kts 122°
2026-04-13 14:28 48.18586 11.51526 34852 ft 439 kts 122°
2026-04-13 14:29 48.15603 11.59434 34851 ft 438 kts 123°
2026-04-13 14:29 48.12592 11.67344 34853 ft 437 kts 123°
2026-04-13 14:30 48.09570 11.75247 34849 ft 436 kts 123°
2026-04-13 14:30 48.06548 11.83127 34847 ft 436 kts 123°
2026-04-13 14:31 48.03526 11.90985 34844 ft 436 kts 123°
2026-04-13 14:31 48.00496 11.98842 34844 ft 436 kts 123°
2026-04-13 14:32 47.97478 12.06645 34849 ft 436 kts 123°
2026-04-13 14:32 47.94434 12.14493 34843 ft 436 kts 123°
2026-04-13 14:33 47.91388 12.22321 34841 ft 436 kts 123°
2026-04-13 14:33 47.88334 12.30151 34834 ft 437 kts 123°
2026-04-13 14:34 47.85275 12.37968 34840 ft 437 kts 123°
2026-04-13 14:34 47.82212 12.45773 34835 ft 437 kts 123°
2026-04-13 14:35 47.79142 12.53573 34828 ft 437 kts 123°
2026-04-13 14:35 47.76084 12.61323 34827 ft 437 kts 123°
2026-04-13 14:36 47.72998 12.69120 34824 ft 437 kts 123°
2026-04-13 14:36 47.69908 12.76906 34823 ft 438 kts 123°
2026-04-13 14:37 47.66261 12.84065 34975 ft 434 kts 137°
2026-04-13 14:37 47.64115 12.87202 35235 ft 433 kts 138°
2026-04-13 14:37 47.61963 12.90323 35495 ft 432 kts 137°
2026-04-13 14:38 47.59815 12.93444 35724 ft 432 kts 137°
2026-04-13 14:38 47.57665 12.96584 35908 ft 434 kts 137°
2026-04-13 14:38 47.55518 12.99733 36075 ft 435 kts 137°
2026-04-13 14:38 47.53369 13.02892 36249 ft 435 kts 137°
2026-04-13 14:39 47.51247 13.06013 36414 ft 436 kts 137°
2026-04-13 14:39 47.49090 13.09184 36618 ft 436 kts 137°
2026-04-13 14:39 47.46935 13.12348 36805 ft 436 kts 137°
2026-04-13 14:39 47.44776 13.15512 36854 ft 438 kts 137°
2026-04-13 14:40 47.40425 13.21879 36861 ft 439 kts 137°
2026-04-13 14:40 47.36091 13.28207 36866 ft 437 kts 137°
2026-04-13 14:41 47.31839 13.34511 36867 ft 435 kts 135°
2026-04-13 14:41 47.27819 13.41167 36872 ft 434 kts 133°
2026-04-13 14:42 47.23853 13.47861 36884 ft 433 kts 133°
2026-04-13 14:42 47.19879 13.54521 36878 ft 432 kts 134°
2026-04-13 14:43 47.15900 13.61139 36900 ft 432 kts 134°
2026-04-13 14:43 47.11937 13.67700 36904 ft 433 kts 134°
2026-04-13 14:44 47.07916 13.74336 36906 ft 436 kts 134°
2026-04-13 14:44 47.03863 13.81010 36907 ft 439 kts 134°
2026-04-13 14:45 46.99786 13.87709 36917 ft 441 kts 134°
2026-04-13 14:45 46.95694 13.94416 36915 ft 442 kts 134°
2026-04-13 14:46 46.91618 14.01081 36918 ft 442 kts 134°
2026-04-13 14:46 46.87512 14.07778 36940 ft 443 kts 134°
2026-04-13 14:47 46.83394 14.14476 36929 ft 442 kts 134°
2026-04-13 14:47 46.79285 14.21146 36940 ft 441 kts 134°
2026-04-13 14:48 46.75183 14.27785 36929 ft 440 kts 134°
2026-04-13 14:48 46.71082 14.34407 36943 ft 440 kts 134°
2026-04-13 14:49 46.66982 14.41012 36937 ft 439 kts 134°
2026-04-13 14:49 46.62877 14.47608 36928 ft 439 kts 134°
2026-04-13 14:50 46.58775 14.54184 36931 ft 438 kts 134°
2026-04-13 14:50 46.54696 14.60707 36930 ft 438 kts 134°
2026-04-13 14:51 46.50596 14.67247 36937 ft 438 kts 134°
2026-04-13 14:51 46.46485 14.73789 36931 ft 438 kts 134°
2026-04-13 14:52 46.42374 14.80316 36927 ft 439 kts 134°
2026-04-13 14:52 46.38249 14.86848 36937 ft 439 kts 134°
2026-04-13 14:53 46.34152 14.93322 36942 ft 439 kts 134°
2026-04-13 14:53 46.30027 14.99824 36939 ft 439 kts 134°
2026-04-13 14:54 46.25890 15.06329 36937 ft 439 kts 135°
2026-04-13 14:54 46.21747 15.12828 36938 ft 440 kts 135°
2026-04-13 14:55 46.17599 15.19319 36937 ft 440 kts 135°
2026-04-13 14:55 46.13435 15.25818 36924 ft 441 kts 135°
2026-04-13 14:56 46.09258 15.32324 36928 ft 442 kts 135°
2026-04-13 14:56 46.05075 15.38823 36916 ft 442 kts 135°
2026-04-13 14:57 46.00905 15.45286 36917 ft 443 kts 135°
2026-04-13 14:58 45.94637 15.54973 36911 ft 442 kts 135°
2026-04-13 14:58 45.90664 15.61094 36906 ft 442 kts 135°
2026-04-13 14:59 45.86466 15.67548 36911 ft 442 kts 136°
2026-04-13 14:59 45.82266 15.73989 36913 ft 441 kts 136°
2026-04-13 15:00 45.78776 15.79331 36913 ft 441 kts 136°
2026-04-13 15:00 45.73889 15.86793 36912 ft 441 kts 136°
2026-04-13 15:01 45.70393 15.92117 36914 ft 441 kts 136°
2026-04-13 15:01 45.66186 15.98511 36912 ft 441 kts 136°
2026-04-13 15:02 45.61971 16.04902 36910 ft 441 kts 136°
2026-04-13 15:02 45.57752 16.11285 36915 ft 441 kts 136°
2026-04-13 15:03 45.53539 16.17641 36915 ft 445 kts 136°
2026-04-13 15:03 45.49265 16.24076 36908 ft 447 kts 136°
2026-04-13 15:04 45.44975 16.30520 36904 ft 449 kts 136°
2026-04-13 15:04 45.40673 16.36969 36900 ft 449 kts 136°
2026-04-13 15:05 45.36371 16.43402 36900 ft 448 kts 136°
2026-04-13 15:05 45.32090 16.49788 36889 ft 448 kts 137°
2026-04-13 15:06 45.27786 16.56194 36905 ft 447 kts 137°
2026-04-13 15:06 45.23488 16.62577 36901 ft 447 kts 137°
2026-04-13 15:07 45.19204 16.68947 36899 ft 447 kts 136°
2026-04-13 15:07 45.15101 16.75589 36909 ft 447 kts 134°
2026-04-13 15:08 45.11062 16.82286 36903 ft 447 kts 134°
2026-04-13 15:08 45.06992 16.88935 36903 ft 446 kts 134°
2026-04-13 15:09 45.02935 16.95506 36901 ft 445 kts 134°
2026-04-13 15:09 44.98852 17.02103 36906 ft 445 kts 134°
2026-04-13 15:10 44.94330 17.07972 36909 ft 438 kts 150°
2026-04-13 15:10 44.89141 17.12481 36909 ft 438 kts 152°
2026-04-13 15:11 44.83939 17.16935 37088 ft 441 kts 151°
2026-04-13 15:11 44.81319 17.19194 37330 ft 440 kts 151°
2026-04-13 15:11 44.78715 17.21449 37562 ft 440 kts 151°
2026-04-13 15:11 44.76112 17.23709 37723 ft 440 kts 151°
2026-04-13 15:12 44.73499 17.25980 37847 ft 442 kts 151°
2026-04-13 15:12 44.70877 17.28258 37980 ft 443 kts 151°
2026-04-13 15:12 44.68256 17.30535 38160 ft 443 kts 151°
2026-04-13 15:12 44.65630 17.32814 38330 ft 444 kts 151°
2026-04-13 15:13 44.62995 17.35098 38469 ft 445 kts 151°
2026-04-13 15:13 44.60356 17.37382 38580 ft 446 kts 152°
2026-04-13 15:13 44.57750 17.39636 38689 ft 446 kts 152°
2026-04-13 15:13 44.55108 17.41918 38795 ft 446 kts 152°
2026-04-13 15:14 44.52461 17.44202 38854 ft 447 kts 152°
2026-04-13 15:14 44.47140 17.48784 38879 ft 448 kts 152°
2026-04-13 15:15 44.41833 17.53346 38885 ft 447 kts 152°
2026-04-13 15:15 44.36539 17.57887 38879 ft 446 kts 152°
2026-04-13 15:16 44.31259 17.62405 38878 ft 444 kts 152°
2026-04-13 15:16 44.26029 17.66871 38881 ft 442 kts 152°
2026-04-13 15:17 44.20780 17.71344 38883 ft 441 kts 152°
2026-04-13 15:17 44.15548 17.75793 38876 ft 440 kts 152°
2026-04-13 15:18 44.10328 17.80222 38879 ft 438 kts 152°
2026-04-13 15:18 44.05123 17.84629 38874 ft 438 kts 152°
2026-04-13 15:19 43.99923 17.89023 38882 ft 437 kts 152°
2026-04-13 15:19 43.94716 17.93413 38874 ft 437 kts 152°
2026-04-13 15:20 43.89544 17.97765 38880 ft 438 kts 152°
2026-04-13 15:20 43.84335 18.02141 38875 ft 437 kts 152°
2026-04-13 15:21 43.79137 18.06496 38881 ft 437 kts 152°
2026-04-13 15:21 43.73926 18.10853 38878 ft 437 kts 152°
2026-04-13 15:22 43.68711 18.15205 38887 ft 438 kts 152°
2026-04-13 15:22 43.63481 18.19561 38883 ft 439 kts 152°
2026-04-13 15:23 43.58238 18.23918 38881 ft 439 kts 152°
2026-04-13 15:23 43.53026 18.28242 38886 ft 440 kts 152°
2026-04-13 15:24 43.47770 18.32594 38889 ft 441 kts 152°
2026-04-13 15:24 43.42498 18.36948 38888 ft 442 kts 152°
2026-04-13 15:25 43.37222 18.41297 38898 ft 443 kts 152°
2026-04-13 15:25 43.31912 18.45665 38896 ft 445 kts 152°
2026-04-13 15:26 43.26589 18.50035 38891 ft 446 kts 152°
2026-04-13 15:26 43.21254 18.54406 38895 ft 447 kts 152°
2026-04-13 15:27 43.15948 18.58744 38901 ft 448 kts 153°
2026-04-13 15:27 43.10589 18.63117 38906 ft 448 kts 153°
2026-04-13 15:28 43.05209 18.67498 38898 ft 450 kts 153°
2026-04-13 15:28 42.99826 18.71872 38901 ft 450 kts 153°
2026-04-13 15:29 42.94432 18.76245 38901 ft 450 kts 153°
2026-04-13 15:29 42.89075 18.80581 38905 ft 451 kts 153°
2026-04-13 15:30 42.83682 18.84936 38901 ft 451 kts 153°
2026-04-13 15:30 42.78288 18.89284 38900 ft 450 kts 153°
2026-04-13 15:31 42.72897 18.93620 38898 ft 449 kts 153°
2026-04-13 15:31 42.67519 18.97937 38903 ft 448 kts 153°
2026-04-13 15:32 42.62150 19.02238 38920 ft 447 kts 153°
2026-04-13 15:32 42.56829 19.06491 38895 ft 445 kts 153°
2026-04-13 15:33 42.51490 19.10751 38885 ft 445 kts 154°
2026-04-13 15:33 42.46142 19.15009 38893 ft 445 kts 154°
2026-04-13 15:34 42.38123 19.21378 38883 ft 445 kts 154°
2026-04-13 15:34 42.32775 19.25615 38882 ft 445 kts 154°
2026-04-13 15:35 42.27461 19.29819 38882 ft 446 kts 154°
2026-04-13 15:35 42.22116 19.34095 38881 ft 448 kts 150°
2026-04-13 15:36 42.16978 19.38916 38890 ft 449 kts 148°
2026-04-13 15:36 42.11932 19.43825 38889 ft 450 kts 148°
2026-04-13 15:37 42.06844 19.48738 38898 ft 451 kts 148°
2026-04-13 15:37 42.01723 19.53633 38900 ft 451 kts 149°
2026-04-13 15:38 41.96587 19.58516 38900 ft 452 kts 149°
2026-04-13 15:38 41.91438 19.63399 38902 ft 453 kts 149°
2026-04-13 15:39 41.86306 19.68257 38906 ft 454 kts 149°
2026-04-13 15:39 41.81107 19.73170 38905 ft 455 kts 149°
2026-04-13 15:40 41.75965 19.78020 38901 ft 455 kts 149°
2026-04-13 15:40 41.70785 19.82895 38923 ft 455 kts 149°
2026-04-13 15:41 41.65592 19.87772 38917 ft 456 kts 149°
2026-04-13 15:41 41.60405 19.92635 38915 ft 455 kts 149°
2026-04-13 15:42 41.55228 19.97479 38911 ft 454 kts 149°
2026-04-13 15:42 41.50063 20.02302 38911 ft 452 kts 149°
2026-04-13 15:43 41.44920 20.07095 38928 ft 450 kts 149°
2026-04-13 15:43 41.39784 20.11870 38937 ft 450 kts 149°
2026-04-13 15:44 41.34648 20.16636 38943 ft 449 kts 149°
2026-04-13 15:44 41.29548 20.21360 38954 ft 449 kts 149°
2026-04-13 15:45 41.24415 20.26106 38959 ft 449 kts 149°
2026-04-13 15:45 41.19286 20.30839 38983 ft 448 kts 149°
2026-04-13 15:46 41.14157 20.35562 38998 ft 449 kts 149°
2026-04-13 15:46 41.09017 20.40287 38992 ft 450 kts 149°
2026-04-13 15:47 41.03876 20.45002 39013 ft 449 kts 149°
2026-04-13 15:47 40.98733 20.49711 39012 ft 449 kts 149°
2026-04-13 15:48 40.94458 20.53619 39028 ft 449 kts 149°
2026-04-13 15:48 40.88482 20.59071 39025 ft 449 kts 149°
2026-04-13 15:49 40.84170 20.62997 39021 ft 449 kts 149°
2026-04-13 15:49 40.79026 20.67673 39036 ft 449 kts 149°
2026-04-13 15:50 40.73916 20.72309 39041 ft 449 kts 149°
2026-04-13 15:50 40.68769 20.76969 39046 ft 449 kts 149°
2026-04-13 15:51 40.63621 20.81622 39057 ft 449 kts 149°
2026-04-13 15:51 40.58461 20.86276 39063 ft 450 kts 149°
2026-04-13 15:52 40.53282 20.90941 39064 ft 451 kts 149°
2026-04-13 15:52 40.48092 20.95625 39072 ft 453 kts 148°
2026-04-13 15:53 40.43234 21.00975 39084 ft 456 kts 142°
2026-04-13 15:53 40.38540 21.06526 39092 ft 457 kts 142°
2026-04-13 15:54 40.33786 21.12087 39093 ft 458 kts 143°
2026-04-13 15:54 40.28990 21.17616 39098 ft 459 kts 143°
2026-04-13 15:55 40.24210 21.23094 39103 ft 459 kts 143°
2026-04-13 15:55 40.19394 21.28601 39108 ft 460 kts 143°
2026-04-13 15:56 40.14567 21.34113 39111 ft 460 kts 143°
2026-04-13 15:56 40.09736 21.39621 39111 ft 460 kts 143°
2026-04-13 15:57 40.04908 21.45115 39116 ft 461 kts 143°
2026-04-13 15:57 40.00076 21.50604 39119 ft 461 kts 143°
2026-04-13 15:58 39.95238 21.56101 39119 ft 461 kts 143°
2026-04-13 15:58 39.90528 21.61686 39124 ft 461 kts 141°
2026-04-13 15:59 39.85817 21.67366 39124 ft 461 kts 141°
2026-04-13 15:59 39.81084 21.73046 39123 ft 462 kts 142°
2026-04-13 16:00 39.76369 21.78667 39119 ft 463 kts 142°
2026-04-13 16:00 39.71614 21.84315 39110 ft 464 kts 142°
2026-04-13 16:01 39.66838 21.89976 39115 ft 465 kts 142°
2026-04-13 16:01 39.62045 21.95646 39106 ft 466 kts 142°
2026-04-13 16:02 39.57252 22.01306 39093 ft 467 kts 142°
2026-04-13 16:02 39.52440 22.06978 39092 ft 467 kts 142°
2026-04-13 16:03 39.47660 22.12602 39091 ft 467 kts 142°
2026-04-13 16:03 39.42838 22.18263 39093 ft 468 kts 142°
2026-04-13 16:04 39.38023 22.23905 39099 ft 468 kts 142°
2026-04-13 16:04 39.33188 22.29559 39098 ft 468 kts 142°
2026-04-13 16:05 39.28350 22.35206 39105 ft 468 kts 142°
2026-04-13 16:05 39.23503 22.40852 39104 ft 469 kts 142°
2026-04-13 16:06 39.18665 22.46478 39110 ft 469 kts 142°
2026-04-13 16:06 39.13835 22.52083 39117 ft 469 kts 142°
2026-04-13 16:07 39.08986 22.57699 39120 ft 470 kts 142°
2026-04-13 16:07 39.04115 22.63330 39114 ft 470 kts 142°
2026-04-13 16:08 38.99244 22.68949 39115 ft 470 kts 142°
2026-04-13 16:08 38.94371 22.74560 39114 ft 471 kts 142°
2026-04-13 16:09 38.89479 22.80182 39112 ft 472 kts 143°
2026-04-13 16:09 38.84579 22.85802 39103 ft 472 kts 143°
2026-04-13 16:10 38.79675 22.91418 39103 ft 472 kts 143°
2026-04-13 16:10 38.74797 22.96991 39110 ft 472 kts 143°
2026-04-13 16:11 38.69883 23.02596 39108 ft 473 kts 143°
2026-04-13 16:11 38.64962 23.08197 39112 ft 473 kts 143°
2026-04-13 16:12 38.60043 23.13786 39110 ft 473 kts 143°
2026-04-13 16:12 38.55101 23.19390 39116 ft 474 kts 143°
2026-04-13 16:13 38.50180 23.24958 39110 ft 475 kts 143°
2026-04-13 16:13 38.45219 23.30562 39125 ft 476 kts 143°
2026-04-13 16:14 38.40246 23.36169 39117 ft 478 kts 143°
2026-04-13 16:14 38.35256 23.41785 39129 ft 479 kts 143°
2026-04-13 16:15 38.30253 23.47405 39142 ft 480 kts 143°
2026-04-13 16:15 38.25274 23.52986 39145 ft 481 kts 143°
2026-04-13 16:16 38.20238 23.58620 39147 ft 481 kts 143°
2026-04-13 16:16 38.15208 23.64238 39161 ft 482 kts 143°
2026-04-13 16:17 38.10158 23.69866 39154 ft 483 kts 143°
2026-04-13 16:17 38.05125 23.75465 39153 ft 484 kts 143°
2026-04-13 16:18 38.00052 23.81098 39158 ft 485 kts 143°
2026-04-13 16:18 37.94963 23.86738 39152 ft 486 kts 143°
2026-04-13 16:19 37.89864 23.92378 39154 ft 486 kts 143°
2026-04-13 16:19 37.84766 23.98007 39167 ft 487 kts 143°
2026-04-13 16:20 37.79653 24.03641 39148 ft 488 kts 143°
2026-04-13 16:20 37.74560 24.09243 39153 ft 488 kts 143°
2026-04-13 16:21 37.69431 24.14874 39148 ft 489 kts 143°
2026-04-13 16:21 37.64285 24.20514 39149 ft 489 kts 143°
2026-04-13 16:22 37.59142 24.26140 39140 ft 490 kts 143°
2026-04-13 16:23 37.51010 24.33814 39155 ft 483 kts 154°
2026-04-13 16:23 37.45290 24.38189 39143 ft 484 kts 154°
2026-04-13 16:24 37.39529 24.42610 39142 ft 485 kts 154°
2026-04-13 16:24 37.33785 24.47085 39134 ft 486 kts 153°
2026-04-13 16:25 37.28048 24.51575 39141 ft 486 kts 153°
2026-04-13 16:25 37.22300 24.56064 39138 ft 486 kts 153°
2026-04-13 16:26 37.16606 24.60503 39038 ft 480 kts 153°
2026-04-13 16:26 37.13785 24.62700 38533 ft 476 kts 154°
2026-04-13 16:26 37.10956 24.64897 37716 ft 479 kts 154°
2026-04-13 16:26 37.08099 24.67111 36849 ft 484 kts 153°
2026-04-13 16:27 37.05225 24.69337 36031 ft 487 kts 153°
2026-04-13 16:27 37.02332 24.71578 35249 ft 490 kts 153°
2026-04-13 16:27 36.99460 24.73803 34519 ft 491 kts 153°
2026-04-13 16:27 36.96549 24.76059 33762 ft 492 kts 153°
2026-04-13 16:28 36.93635 24.78312 32922 ft 493 kts 153°
2026-04-13 16:28 36.90700 24.80580 31969 ft 497 kts 153°
2026-04-13 16:28 36.87744 24.82870 31002 ft 502 kts 152°
2026-04-13 16:28 36.84764 24.85184 30031 ft 507 kts 152°
2026-04-13 16:29 36.81764 24.87515 28973 ft 509 kts 152°
2026-04-13 16:29 36.78757 24.89850 28023 ft 509 kts 152°
2026-04-13 16:29 36.75755 24.92179 27094 ft 508 kts 151°
2026-04-13 16:29 36.72747 24.94507 26101 ft 508 kts 151°
2026-04-13 16:30 36.69760 24.96816 25576 ft 498 kts 151°
2026-04-13 16:30 36.66838 24.99065 25342 ft 493 kts 151°
2026-04-13 16:30 36.63906 25.01309 25105 ft 495 kts 151°
2026-04-13 16:30 36.60965 25.03554 24867 ft 495 kts 151°
2026-04-13 16:31 36.58034 25.05789 24626 ft 492 kts 151°
2026-04-13 16:31 36.55164 25.07979 24393 ft 490 kts 151°
2026-04-13 16:31 36.52264 25.10192 24164 ft 487 kts 151°
2026-04-13 16:31 36.49378 25.12392 23941 ft 486 kts 151°
2026-04-13 16:32 36.46503 25.14582 23718 ft 484 kts 150°
2026-04-13 16:32 36.43630 25.16770 23450 ft 483 kts 150°
2026-04-13 16:32 36.40768 25.18947 23182 ft 482 kts 150°
2026-04-13 16:32 36.37912 25.21117 22913 ft 480 kts 150°
2026-04-13 16:33 36.35068 25.23277 22653 ft 479 kts 150°
2026-04-13 16:33 36.32230 25.25429 22384 ft 477 kts 150°
2026-04-13 16:33 36.29402 25.27573 22121 ft 476 kts 150°
2026-04-13 16:33 36.26584 25.29708 21876 ft 474 kts 150°
2026-04-13 16:34 36.23771 25.31836 21610 ft 472 kts 150°
2026-04-13 16:34 36.21001 25.33931 21357 ft 470 kts 150°
2026-04-13 16:34 36.18215 25.36037 21099 ft 469 kts 150°
2026-04-13 16:34 36.15436 25.38134 20846 ft 467 kts 150°
2026-04-13 16:35 36.12640 25.40163 20592 ft 464 kts 154°
2026-04-13 16:35 36.09688 25.41720 20336 ft 459 kts 164°
2026-04-13 16:35 36.06651 25.42927 20095 ft 457 kts 165°
2026-04-13 16:35 36.03623 25.44094 19540 ft 453 kts 165°
2026-04-13 16:36 36.00613 25.45258 18882 ft 449 kts 165°
2026-04-13 16:36 35.97688 25.46407 18465 ft 443 kts 165°
2026-04-13 16:36 35.94802 25.47556 18304 ft 427 kts 165°
2026-04-13 16:36 35.92021 25.48673 18163 ft 412 kts 165°
2026-04-13 16:37 35.89345 25.49751 18115 ft 396 kts 165°
2026-04-13 16:37 35.86775 25.50786 18101 ft 380 kts 165°
2026-04-13 16:37 35.85132 25.51446 18098 ft 370 kts 165°
2026-04-13 16:37 35.82723 25.52413 18100 ft 356 kts 165°
2026-04-13 16:38 35.80406 25.53340 18055 ft 345 kts 165°
2026-04-13 16:38 35.77440 25.54527 17937 ft 332 kts 165°
2026-04-13 16:38 35.75953 25.55122 17717 ft 333 kts 165°
2026-04-13 16:38 35.73719 25.56012 17183 ft 340 kts 165°
2026-04-13 16:39 35.71423 25.56717 16668 ft 340 kts 179°
2026-04-13 16:39 35.69110 25.57210 16177 ft 348 kts 162°
2026-04-13 16:39 35.66999 25.58711 15693 ft 356 kts 139°
2026-04-13 16:39 35.65437 25.61076 15234 ft 358 kts 120°
2026-04-13 16:40 35.64250 25.63781 14772 ft 360 kts 116°
2026-04-13 16:40 35.63121 25.66540 14305 ft 362 kts 115°
2026-04-13 16:40 35.61998 25.69316 13827 ft 364 kts 115°
2026-04-13 16:40 35.60870 25.72109 13314 ft 365 kts 115°
2026-04-13 16:41 35.59740 25.74912 12811 ft 366 kts 115°
2026-04-13 16:41 35.58611 25.77713 12302 ft 366 kts 115°
2026-04-13 16:41 35.57496 25.80481 11818 ft 366 kts 115°
2026-04-13 16:41 35.56365 25.83288 11318 ft 365 kts 115°
2026-04-13 16:42 35.55280 25.86103 10834 ft 363 kts 108°
2026-04-13 16:42 35.54850 25.89121 10337 ft 356 kts 86°
2026-04-13 16:42 35.55330 25.92045 9866 ft 347 kts 64°
2026-04-13 16:42 35.56625 25.94481 9351 ft 338 kts 42°
2026-04-13 16:43 35.58499 25.96064 8903 ft 327 kts 20°
2026-04-13 16:43 35.60680 25.96606 8523 ft 317 kts 357°
2026-04-13 16:43 35.62808 25.96074 8153 ft 309 kts 339°
2026-04-13 16:43 35.64779 25.95080 7786 ft 305 kts 336°
2026-04-13 16:44 35.66708 25.94027 7413 ft 301 kts 335°
2026-04-13 16:44 35.68603 25.92977 7164 ft 294 kts 335°
2026-04-13 16:44 35.70426 25.91961 7125 ft 280 kts 335°
2026-04-13 16:44 35.72156 25.90997 7082 ft 267 kts 335°
2026-04-13 16:45 35.73842 25.90059 6825 ft 264 kts 335°
2026-04-13 16:45 35.75505 25.89133 6595 ft 261 kts 335°
2026-04-13 16:45 35.77154 25.88214 6337 ft 258 kts 335°
2026-04-13 16:45 35.78780 25.87307 6082 ft 256 kts 335°
2026-04-13 16:46 35.80273 25.86219 5834 ft 252 kts 313°
2026-04-13 16:46 35.81006 25.84320 5714 ft 249 kts 276°
2026-04-13 16:46 35.80648 25.82253 5613 ft 253 kts 241°
2026-04-13 16:46 35.79793 25.80343 5598 ft 255 kts 250°
2026-04-13 16:47 35.79235 25.78252 5560 ft 258 kts 256°
2026-04-13 16:47 35.78759 25.76113 5507 ft 258 kts 257°
2026-04-13 16:47 35.78303 25.73975 5446 ft 257 kts 257°
2026-04-13 16:47 35.77858 25.71873 5401 ft 256 kts 257°
2026-04-13 16:48 35.77406 25.69753 5344 ft 256 kts 257°
2026-04-13 16:48 35.76954 25.67636 5298 ft 255 kts 257°
2026-04-13 16:48 35.76500 25.65523 5239 ft 255 kts 257°
2026-04-13 16:48 35.76047 25.63417 5186 ft 254 kts 257°
2026-04-13 16:49 35.75592 25.61311 5086 ft 256 kts 256°
2026-04-13 16:49 35.75132 25.59184 4978 ft 258 kts 256°
2026-04-13 16:49 35.74669 25.57044 4868 ft 258 kts 256°
2026-04-13 16:49 35.74206 25.54916 4717 ft 256 kts 256°
2026-04-13 16:50 35.73748 25.52813 4590 ft 252 kts 256°
2026-04-13 16:50 35.73300 25.50755 4456 ft 252 kts 256°
2026-04-13 16:50 35.72846 25.48668 4333 ft 253 kts 256°
2026-04-13 16:50 35.72389 25.46570 4207 ft 254 kts 256°
2026-04-13 16:51 35.71933 25.44484 4086 ft 255 kts 256°
2026-04-13 16:51 35.71468 25.42356 3957 ft 255 kts 256°
2026-04-13 16:51 35.71006 25.40240 3832 ft 256 kts 256°
2026-04-13 16:51 35.70543 25.38128 3710 ft 256 kts 256°
2026-04-13 16:52 35.70078 25.36008 3592 ft 256 kts 256°
2026-04-13 16:52 35.69621 25.33925 3518 ft 254 kts 256°
2026-04-13 16:52 35.69162 25.31832 3442 ft 252 kts 255°
2026-04-13 16:52 35.68704 25.29746 3366 ft 251 kts 255°
2026-04-13 16:53 35.68248 25.27675 3284 ft 250 kts 255°
2026-04-13 16:53 35.67794 25.25611 3208 ft 250 kts 255°
2026-04-13 16:53 35.67337 25.23539 3122 ft 252 kts 255°
2026-04-13 16:53 35.66875 25.21445 3023 ft 254 kts 255°
2026-04-13 16:54 35.66411 25.19340 2989 ft 254 kts 255°
2026-04-13 16:54 35.65948 25.17248 2977 ft 252 kts 255°
2026-04-13 16:54 35.65492 25.15186 2997 ft 255 kts 255°
2026-04-13 16:54 35.65025 25.13072 2980 ft 257 kts 255°
2026-04-13 16:55 35.64557 25.10958 2978 ft 256 kts 255°
2026-04-13 16:55 35.64089 25.08846 2980 ft 255 kts 255°
2026-04-13 16:55 35.63624 25.06750 2984 ft 253 kts 255°
2026-04-13 16:55 35.63171 25.04710 2971 ft 241 kts 255°
2026-04-13 16:56 35.62739 25.02773 2965 ft 229 kts 255°
2026-04-13 16:56 35.62323 25.00911 2980 ft 225 kts 253°
2026-04-13 16:56 35.61523 24.99297 2981 ft 223 kts 218°
2026-04-13 16:56 35.60110 24.98598 2979 ft 221 kts 181°
2026-04-13 16:57 35.58656 24.98997 3011 ft 210 kts 151°
2026-04-13 16:57 35.57438 24.99904 2962 ft 199 kts 145°
2026-04-13 16:57 35.56321 25.00820 2809 ft 192 kts 144°
2026-04-13 16:57 35.55226 25.01715 2671 ft 187 kts 144°
2026-04-13 16:58 35.54151 25.02588 2563 ft 182 kts 144°
2026-04-13 16:58 35.53108 25.03439 2456 ft 178 kts 144°
2026-04-13 16:58 35.52084 25.04261 2352 ft 175 kts 144°
2026-04-13 16:58 35.51060 25.05077 2231 ft 176 kts 144°
2026-04-13 16:59 35.50030 25.05890 2117 ft 176 kts 146°
2026-04-13 16:59 35.48927 25.06572 2054 ft 177 kts 155°
2026-04-13 16:59 35.47758 25.07053 2006 ft 176 kts 161°
2026-04-13 16:59 35.46564 25.07437 1890 ft 179 kts 163°
2026-04-13 17:00 35.45371 25.07782 1750 ft 177 kts 165°
2026-04-13 17:00 35.44186 25.08093 1636 ft 171 kts 165°
2026-04-13 17:00 35.43070 25.08376 1520 ft 157 kts 165°
2026-04-13 17:00 35.42046 25.08611 1499 ft 146 kts 167°
2026-04-13 17:01 35.41069 25.08793 1826 ft 147 kts 168°
2026-04-13 17:01 35.40082 25.08971 1788 ft 142 kts 170°
2026-04-13 17:01 35.39103 25.09112 1673 ft 144 kts 171°
2026-04-13 17:01 35.38094 25.09247 1456 ft 147 kts 171°
2026-04-13 17:02 35.37072 25.09363 1241 ft 146 kts 169°
2026-04-13 17:02 35.36111 25.09680 1015 ft 142 kts 151°
2026-04-13 17:02 35.35381 25.10393 810 ft 131 kts 125°
2026-04-13 17:02 35.34870 25.11313 645 ft 129 kts 119°
2026-04-13 17:03 35.34494 25.12288 528 ft 126 kts 107°
2026-04-13 17:03 35.34302 25.13333 411 ft 127 kts 98°
2026-04-13 17:03 35.34221 25.14431 326 ft 133 kts 94°
2026-04-13 17:03 35.34144 25.15577 232 ft 136 kts 95°
2026-04-13 17:04 35.34070 25.16730 117 ft 135 kts 96°
2026-04-13 17:04 35.33989 25.17821 87 ft 116 kts 93°
2026-04-13 17:04 35.33934 25.18626 84 ft 74 kts 94°
2026-04-13 17:04 35.33911 25.18951 87 ft 11 kts 94°
2026-04-13 17:05 35.33865 25.19007 83 ft 11 kts 208°
2026-04-13 17:05 35.33827 25.18923 83 ft 11 kts 249°
2026-04-13 17:05 35.33817 25.18831 83 ft 11 kts 272°
2026-04-13 17:05 35.33825 25.18740 83 ft 11 kts 276°
2026-04-13 17:06 35.33832 25.18651 83 ft 10 kts 276°
2026-04-13 17:06 35.33839 25.18564 84 ft 11 kts 275°
2026-04-13 17:06 35.33847 25.18462 87 ft 14 kts 275°
2026-04-13 17:06 35.33853 25.18341 87 ft 14 kts 272°
2026-04-13 17:07 35.33860 25.18227 89 ft 13 kts 277°
2026-04-13 17:07 35.33870 25.18115 91 ft 14 kts 274°
2026-04-13 17:07 35.33876 25.17989 84 ft 15 kts 274°
2026-04-13 17:07 35.33885 25.17861 88 ft 15 kts 277°
2026-04-13 17:08 35.33896 25.17739 84 ft 14 kts 274°
2026-04-13 17:08 35.33901 25.17659 84 ft 0 kts 274°
2026-04-13 17:08 35.33901 25.17654 84 ft 2 kts 272°
2026-04-13 17:08 35.33871 25.17629 85 ft 4 kts 191°
2026-04-13 17:09 35.33835 25.17623 83 ft 6 kts 188°
2026-04-13 17:09 35.33796 25.17614 83 ft 6 kts 204°
2026-04-13 17:09 35.33795 25.17584 84 ft 4 kts 277°
2026-04-13 17:09 35.33798 25.17557 85 ft 2 kts 278°
2026-04-13 17:10 35.33799 25.17549 84 ft 0 kts 278°